Overview Statistics Trail Chart Weather Telemetry Raw packets
 

This is the latest recevied weather packets stored in our database for station/object NR6G-5. If no packets are shown the sender has not sent any weather packets the latest 10 day(s).

<< 19 20 21 22 23 24 25 >>
Time Temp. Humidity Pressure Rain* Wind** Luminosity Snow
1777646957 20° C 61% 1013.3 hPa 0 mm - - -
1777646657 19.44° C 62% 1013.2 hPa 0 mm - - -
1777646358 19.44° C 62% 1013.2 hPa 0 mm - - -
1777646057 18.89° C 62% 1013.2 hPa 0 mm - - -
1777645757 18.33° C 64% 1013.1 hPa 0 mm - - -
1777645458 18.33° C 66% 1013 hPa 0 mm - - -
1777645157 17.78° C 67% 1013 hPa 0 mm - - -
1777644857 17.22° C 67% 1013 hPa 0 mm - - -
1777644558 16.11° C 70% 1013 hPa 0 mm - - -
1777644263 16.11° C 70% 1013 hPa 0 mm - - -
1777643357 15° C 76% 1012.9 hPa 0 mm - - -
1777643058 14.44° C 77% 1012.8 hPa 0 mm - - -
1777642612 13.89° C 78% 1012.8 hPa 0 mm - - -
1777641713 13.89° C 76% 1012.7 hPa 0 mm - - -
1777641412 14.44° C 74% 1012.6 hPa 0 mm - - -
1777640813 15.56° C 70% 1012.5 hPa 0 mm - - -
1777640512 15.56° C 68% 1012.4 hPa 0 mm - - -
1777640212 15.56° C 69% 1012.3 hPa 0 mm - - -
1777639913 16.11° C 68% 1012.3 hPa 0 mm - - -
1777639612 15.56° C 68% 1012.2 hPa 0 mm - - -
1777639313 16.11° C 67% 1012.2 hPa 0 mm - - -
1777639012 16.11° C 67% 1012.1 hPa 0 mm - - -
1777638712 16.11° C 67% 1012.1 hPa 0 mm - - -
1777638412 16.11° C 68% 1012.1 hPa 0 mm - - -
1777638112 15.56° C 68% 1012.1 hPa 0 mm - - -

* Rain latest hour (hover to see other rain measurements)
** Current wind speed in m/s (hover to see current wind gust speed)